Wind_Speed
33 30 26 23 22 23 25 25 25 24 23 22 22 24 26 28 30 30 28 27 26 26 26 24 23 23 22 22 21 20 20 20 20 20 19 18 18 17 15 14 12 11 10 9 8 9 9 8 7 6 6 5 5 6 6 5 5 4 3 2 2 3 5
30 31 30 27 24 22 22 24 25 25 24 24 23 23 24 27 29 30 29 27 26 26 26 25 23 22 22 21 22 21 20 19 20 21 21 20 19 19 17 16 14 13 11 11 11 11 11 10 8 8 7 6 6 6 6 6 6 5 4 3 3 2 3
21 24 27 28 26 23 21 22 23 24 24 24 24 24 24 25 27 29 29 28 27 26 27 26 25 23 21 21 22 22 21 20 20 21 22 21 20 19 18 18 16 15 14 13 12 12 13 12 11 9 8 8 7 7 7 7 7 7 6 5 4 3 2
16 17 20 23 25 25 25 24 23 23 23 23 23 24 23 23 24 26 27 27 27 27 27 27 25 24 23 22 22 21 21 21 20 20 21 22 21 20 20 19 18 17 16 14 14 14 14 14 12 11 10 9 8 7 7 7 7 8 8 7 6 4 3
17 17 18 20 22 23 24 25 24 23 23 21 21 22 22 22 22 24 26 27 28 28 27 26 25 24 23 22 22 21 21 21 20 19 20 21 22 23 22 20 19 18 17 16 15 15 15 15 14 12 11 10 9 8 8 8 8 8 8 8 7 6 5
17 17 18 19 20 21 22 24 24 24 23 22 21 20 21 22 22 22 23 25 27 28 27 27 26 25 24 23 22 21 20 20 20 20 20 21 22 24 24 23 21 20 18 18 17 17 16 16 15 14 12 11 10 8 8 8 8 9 9 8 8 8 7
17 17 17 17 18 21 24 26 27 28 27 26 24 22 22 22 22 22 22 24 26 27 28 28 27 27 26 24 23 22 21 21 21 21 21 22 22 23 24 25 24 22 21 20 20 19 18 17 16 15 14 13 11 10 9 9 9 9 10 9 9 9 9
17 18 17 16 16 18 21 25 29 32 33 32 30 27 25 23 22 23 22 23 24 26 28 28 28 27 26 26 25 24 23 22 21 21 22 22 23 23 24 25 25 25 24 23 21 21 20 19 18 17 16 15 13 12 11 10 10 10 10 10 10 10 10
18 19 19 17 17 17 18 21 25 30 33 34 34 33 30 27 25 25 23 22 23 24 26 27 27 27 27 27 27 26 25 24 23 23 23 23 23 23 23 24 25 26 26 25 24 23 22 21 20 20 19 18 16 14 13 12 12 12 11 11 11 11 12
17 20 20 19 18 18 18 19 21 25 29 32 34 35 34 32 29 26 25 24 24 23 23 24 26 26 27 28 28 27 27 26 25 25 24 24 24 23 23 23 24 25 25 25 26 26 25 24 24 23 22 20 18 16 15 15 14 14 13 12 12 12 13
15 17 19 19 19 20 19 19 19 21 25 29 32 34 35 35 32 27 25 25 25 24 23 23 24 25 27 28 28 28 28 28 27 27 26 26 25 24 23 23 24 25 25 25 26 26 27 27 27 26 24 22 20 19 18 17 17 17 16 15 14 14 14
10 12 14 16 18 19 20 20 20 20 23 26 29 32 34 36 34 29 25 24 23 23 23 22 23 25 26 27 28 29 29 29 28 28 27 27 26 25 24 24 25 26 26 26 26 27 27 28 28 28 27 25 23 23 21 20 20 20 19 18 17 16 16
6 8 9 11 14 17 18 19 20 21 22 25 27 29 32 35 35 31 28 27 26 25 24 23 23 24 25 26 27 28 29 30 30 29 29 29 28 27 27 26 26 26 27 27 28 28 28 28 28 28 28 27 26 26 24 23 23 22 21 21 20 19 18
2 2 6 9 11 13 16 18 20 21 22 24 26 28 30 33 34 32 31 32 32 31 29 27 26 26 25 26 26 27 28 29 29 30 30 30 30 29 29 29 28 27 27 28 28 29 29 29 29 29 29 29 28 28 27 26 25 24 23 23 23 22 21
4 4 4 6 9 11 14 16 18 20 22 24 26 27 29 32 33 33 32 33 33 33 32 31 29 28 27 26 26 26 27 27 28 29 30 31 31 31 31 30 30 29 29 29 29 29 29 30 29 30 30 30 30 29 29 29 27 26 25 24 24 24 23
6 5 6 7 8 11 13 16 18 20 22 23 25 27 28 30 32 33 33 33 33 32 31 30 29 28 27 26 26 26 26 26 28 29 30 32 32 32 32 32 32 32 31 31 31 31 31 31 31 31 31 31 31 31 31 30 29 27 26 25 25 25 25
6 5 5 6 6 9 11 14 17 20 21 22 24 25 27 29 31 32 33 34 34 33 32 31 29 28 27 27 27 27 26 26 27 30 32 33 34 34 34 34 34 34 34 33 33 33 32 33 32 32 32 32 32 32 32 31 30 28 27 26 26 26 26
3 4 5 6 4 3 6 9 14 17 20 22 23 24 26 28 30 31 32 33 34 34 33 31 30 29 27 27 27 27 28 28 28 29 31 33 35 35 35 35 36 36 36 35 35 34 34 34 34 33 33 33 33 33 33 32 31 30 29 28 27 27 27
4 1 2 5 6 4 1 2 7 13 17 20 22 23 25 26 29 31 33 36 35 33 31 30 30 29 28 27 25 25 26 29 30 31 31 31 33 35 36 37 38 37 36 36 35 35 35 35 34 34 34 35 35 34 34 33 32 31 30 29 28 27 28
9 8 5 2 4 5 5 5 2 4 9 14 18 20 20 23 27 26 28 34 34 28 27 28 29 29 28 26 24 22 24 28 31 33 32 31 30 31 33 36 38 37 37 36 35 36 36 35 35 35 35 35 35 35 34 33 32 32 31 30 29 28 28
11 12 11 9 6 4 4 6 5 3 4 6 9 11 12 17 22 20 20 25 28 27 28 29 29 29 29 27 25 24 26 28 30 32 32 31 30 29 29 33 36 37 36 36 36 36 35 35 35 35 35 35 35 35 35 34 32 32 32 31 30 30 30
13 14 16 15 12 9 7 6 5 4 5 5 3 5 5 7 14 18 18 19 23 27 30 30 28 30 30 28 27 28 28 28 29 29 29 30 32 32 31 32 34 35 35 35 35 35 35 35 35 35 35 34 34 35 35 33 33 32 32 32 31 31 32
14 15 17 19 18 16 14 11 9 8 6 5 4 3 3 6 8 10 10 10 14 19 24 27 28 28 28 27 28 30 29 27 27 27 28 30 33 35 35 34 34 35 34 33 33 33 33 34 34 35 35 34 34 35 34 32 32 32 32 32 32 33 33
15 15 17 20 21 22 22 20 17 14 10 9 7 5 5 6 7 8 9 7 10 13 15 21 25 25 26 27 29 31 29 25 25 27 28 30 33 35 36 35 36 36 35 34 33 32 32 33 34 34 34 35 34 34 32 31 30 31 31 31 32 33 34
18 17 17 19 22 24 27 28 26 22 19 17 14 10 8 7 7 7 7 6 5 8 10 15 21 25 26 28 29 29 27 24 24 26 26 29 33 36 37 37 37 37 37 35 34 33 32 32 34 34 34 34 34 33 31 30 29 30 30 29 30 32 33
22 20 18 19 20 23 27 31 32 31 29 27 23 19 15 10 9 10 7 2 3 4 9 13 19 23 26 27 28 28 27 25 26 27 27 27 30 34 37 38 38 38 38 36 35 33 33 33 34 34 33 33 32 31 30 29 28 28 28 28 29 31 32
25 24 22 21 21 22 25 29 34 36 36 35 32 27 23 18 13 12 10 6 2 2 6 12 17 21 24 26 29 30 29 28 28 30 30 29 29 32 35 37 38 38 37 36 35 34 33 33 33 33 32 31 31 30 28 27 26 26 27 28 29 30 31
27 27 26 24 23 23 25 27 32 38 40 40 39 35 30 26 20 16 13 11 7 2 4 10 16 20 23 27 29 30 29 28 30 32 33 31 29 29 30 32 33 34 34 34 35 35 34 33 32 32 32 31 30 29 27 26 26 25 26 27 28 29 30
31 30 29 28 26 25 26 26 28 35 41 43 43 42 38 34 29 24 19 16 13 8 5 7 13 17 21 24 25 26 27 29 31 31 30 28 27 27 27 28 28 30 32 33 34 34 33 33 32 32 32 31 30 28 27 26 26 25 25 26 27 28 29
34 33 32 32 30 29 29 29 27 30 36 41 43 44 44 42 38 33 27 22 19 15 11 9 12 15 18 20 22 25 28 31 32 31 28 26 27 28 27 27 27 27 29 32 33 33 32 32 32 33 33 32 30 29 28 27 26 26 26 26 27 28 29
36 35 33 33 33 32 31 32 31 29 30 34 40 45 47 47 44 41 36 29 25 22 18 14 14 15 16 17 19 23 27 29 31 32 30 27 27 29 27 27 27 27 26 27 29 31 31 30 31 34 35 34 32 30 29 29 28 28 27 27 28 29 30
38 37 36 34 33 34 33 33 34 33 31 30 33 40 47 49 49 47 43 37 32 27 23 20 17 16 17 18 18 19 23 25 26 28 28 27 27 30 30 29 28 28 27 26 26 27 28 27 26 29 33 35 34 32 31 30 30 29 28 28 29 29 30
40 40 39 37 35 34 34 33 34 35 35 32 30 33 40 46 49 50 48 44 39 33 29 25 22 19 19 20 20 19 21 23 22 23 26 27 26 28 31 31 30 29 29 29 28 27 26 24 22 24 28 31 33 33 33 33 32 31 29 29 29 29 30
42 41 41 40 38 37 35 34 33 34 36 35 33 32 34 39 45 50 51 49 46 40 35 30 28 25 22 22 23 22 21 22 22 21 23 26 26 26 27 29 29 29 30 32 33 31 27 24 22 22 24 26 29 31 33 34 34 32 30 30 31 30 30
43 42 42 41 41 40 38 35 33 33 34 34 34 34 34 35 40 46 51 53 51 47 42 37 35 33 29 26 26 25 24 23 22 21 21 23 25 26 25 25 26 28 31 33 33 31 26 23 22 22 23 25 28 30 32 35 35 33 32 33 34 33 32
45 44 43 42 43 43 41 38 35 34 33 32 33 34 34 35 37 41 46 52 54 52 48 45 43 40 36 32 29 28 27 26 23 22 22 24 25 25 25 24 24 25 26 27 27 26 24 22 22 22 24 27 29 30 32 34 34 33 34 36 37 36 35
44 45 44 44 44 44 44 41 38 36 34 32 32 33 33 33 36 39 42 48 53 55 53 51 49 47 43 38 34 31 30 29 27 24 23 24 26 27 26 25 24 25 24 24 24 25 23 22 22 23 26 29 30 31 32 34 35 35 36 38 39 38 37
42 44 45 45 45 45 45 43 40 38 36 33 33 34 33 32 33 36 40 44 50 54 55 55 54 52 48 43 39 36 33 32 31 28 25 24 26 28 28 27 25 25 25 25 25 25 23 22 22 24 26 28 30 31 32 34 35 35 36 37 38 37 37
Wind_Direction
248 249 249 247 241 234 229 226 223 220 218 218 215 212 210 209 210 211 211 211 212 213 214 213 211 211 211 210 212 214 214 213 212 212 212 213 216 215 211 211 213 216 220 222 225 228 226 222 218 219 221 216 210 206 202 196 194 191 174 144 117 97 88
245 245 247 249 249 244 238 232 229 226 222 219 218 215 213 210 210 211 211 211 212 213 215 215 213 213 213 212 212 214 215 214 213 213 213 212 215 216 212 208 208 211 216 220 223 227 230 228 223 221 223 224 220 214 212 213 213 209 203 190 165 128 105
242 242 243 246 248 249 247 242 237 233 227 223 219 217 215 212 211 212 211 212 213 214 216 216 216 215 215 215 214 214 216 216 215 214 214 213 214 217 215 210 209 210 214 219 223 226 230 230 227 225 224 224 226 223 220 220 222 220 216 209 198 182 151
229 234 240 245 248 250 251 250 245 241 235 230 224 220 217 216 216 216 214 213 214 216 217 217 217 216 217 217 216 215 216 218 218 216 215 214 214 216 217 214 212 212 214 217 222 226 229 231 230 230 229 227 228 231 231 229 230 229 225 221 216 211 208
223 228 235 242 246 247 249 249 248 245 242 237 232 227 222 220 221 220 218 216 215 217 218 219 219 219 220 220 219 217 217 219 220 220 218 216 215 216 218 217 215 215 214 216 221 226 231 233 233 232 233 232 231 232 236 238 239 240 239 234 232 229 229
232 231 233 239 247 251 251 251 252 250 248 244 239 235 230 226 224 221 219 217 216 216 217 218 218 219 222 223 223 221 219 218 220 221 220 219 218 218 219 220 219 218 217 217 221 225 230 234 235 234 235 235 234 232 235 240 242 245 247 246 245 245 243
245 240 234 233 244 257 260 258 256 254 253 251 247 242 237 233 228 224 221 219 217 217 217 217 217 218 220 223 225 225 222 220 220 221 222 222 221 219 219 221 222 221 220 220 222 225 228 232 235 236 237 237 237 235 235 240 243 244 246 248 252 254 254
252 249 241 232 235 248 257 260 258 255 253 252 250 246 242 237 234 231 226 222 219 218 218 218 219 219 220 222 224 225 224 224 224 224 224 224 224 222 220 222 223 222 222 222 223 227 229 232 236 238 239 240 239 239 238 241 244 246 246 246 248 252 256
255 255 249 242 237 238 243 251 254 253 252 251 251 250 248 244 240 238 235 230 226 223 220 220 220 221 222 223 224 226 226 226 225 225 227 227 226 225 223 223 224 224 224 222 223 226 230 232 235 238 240 241 241 240 241 242 245 248 248 248 248 248 251
253 256 253 244 239 239 239 240 244 246 248 249 250 251 250 247 244 243 243 240 235 229 226 224 223 222 223 224 225 226 227 228 227 226 226 227 228 228 227 227 227 227 227 225 224 225 227 231 233 236 238 240 240 241 242 245 247 249 249 248 249 248 247
251 254 255 246 239 239 239 238 238 239 242 244 244 246 248 249 246 244 244 245 242 237 233 230 227 224 223 224 225 226 227 228 228 227 226 226 227 227 229 229 230 230 231 230 229 227 227 229 232 234 237 238 239 240 241 243 246 249 250 249 248 247 246
265 258 258 252 245 240 238 238 239 239 240 240 240 242 243 246 246 243 242 245 244 239 235 233 230 227 225 225 225 226 228 229 230 230 229 228 227 227 228 229 230 231 231 232 233 232 230 231 232 234 236 238 239 240 241 242 244 247 250 251 250 247 246
299 274 265 258 251 245 240 237 238 241 241 240 240 241 241 243 244 242 239 240 241 239 238 235 233 230 228 227 226 226 228 229 230 232 232 232 232 231 230 230 230 230 231 232 234 234 234 234 234 235 237 238 240 241 242 242 243 244 247 250 251 250 247
11 260 254 254 252 247 240 236 236 238 240 240 240 241 242 242 243 242 239 239 241 242 243 242 240 237 234 231 230 228 227 229 231 233 234 235 236 236 235 234 233 232 232 233 234 234 235 236 236 236 237 238 239 240 242 242 242 242 243 246 250 252 251
68 113 166 220 238 238 237 236 235 235 237 239 240 240 241 242 243 243 242 241 242 244 245 246 245 243 240 235 231 228 228 230 232 233 235 235 236 237 237 236 235 234 234 234 234 234 235 236 237 237 237 237 238 239 240 241 241 240 241 243 246 250 252
42 64 111 148 185 207 219 228 232 233 235 237 239 240 240 241 243 244 245 245 245 244 244 244 244 242 239 235 230 228 228 231 232 233 233 235 235 235 236 236 236 236 234 233 233 234 235 236 237 237 237 237 238 238 239 240 240 239 239 240 242 245 249
50 34 59 96 136 167 188 207 221 230 234 235 238 240 241 241 242 244 246 247 247 246 245 244 242 240 238 235 232 230 229 229 231 233 233 235 236 236 235 236 236 237 236 235 234 234 235 236 236 237 238 238 239 239 240 240 240 240 239 239 240 242 245
82 56 45 42 48 123 162 184 203 217 227 231 233 236 240 243 245 246 247 248 247 246 246 246 244 242 241 240 237 235 232 228 227 228 231 234 238 239 240 239 238 238 238 238 237 237 237 237 237 238 238 239 240 241 241 242 242 242 241 240 240 241 243
224 203 55 39 22 1 352 184 193 204 214 220 224 227 231 236 241 244 247 247 246 246 247 250 249 246 244 244 246 244 238 232 229 226 225 229 234 238 241 242 242 241 240 240 240 240 241 240 240 241 240 241 242 242 243 244 244 244 244 243 242 241 242
241 235 237 301 352 351 356 353 329 223 223 224 222 221 223 225 230 236 242 243 243 245 249 250 249 248 247 245 244 244 240 236 233 231 228 227 228 232 238 242 244 245 244 243 242 242 243 244 244 245 244 244 245 245 245 246 245 246 246 246 245 243 243
258 245 238 246 271 294 324 333 336 334 297 265 231 223 231 234 233 240 251 251 247 245 244 242 243 244 246 244 237 234 234 232 230 230 230 230 229 231 235 237 239 242 244 245 245 245 245 246 247 247 247 247 247 247 247 247 246 247 247 247 247 245 244
266 257 247 245 247 251 265 287 299 313 330 325 260 231 258 270 254 251 251 248 245 242 237 234 236 238 241 241 234 229 230 229 227 228 230 229 230 232 234 234 234 235 238 242 245 246 246 247 247 248 248 248 248 248 248 247 247 247 247 247 247 246 245
266 263 258 253 249 248 251 257 266 277 299 321 309 270 309 336 311 286 270 247 238 240 238 234 233 235 239 239 233 229 230 229 229 232 232 229 227 229 232 233 232 231 231 233 237 241 244 246 247 248 248 247 247 248 248 247 246 247 247 247 247 247 246
269 265 263 261 256 252 252 255 259 260 266 283 297 302 310 327 337 345 346 312 257 244 243 241 237 234 236 236 235 234 234 232 230 232 233 229 225 225 229 231 230 229 229 229 230 232 237 242 245 246 246 245 245 246 247 246 245 245 246 245 246 247 246
270 268 265 265 264 258 255 256 258 258 262 269 275 285 294 302 316 328 350 353 294 249 233 236 237 233 229 227 228 231 233 233 234 234 236 234 228 224 225 227 228 229 228 227 227 228 232 238 241 242 243 244 245 245 245 244 243 243 244 243 244 245 246
264 266 264 264 267 266 261 259 256 256 261 266 269 275 281 282 295 294 285 345 354 260 232 232 231 229 226 223 222 224 225 228 232 236 241 243 235 227 224 224 226 228 229 228 228 229 232 236 238 239 241 242 244 244 243 242 241 241 242 242 243 243 244
259 260 262 260 261 264 266 265 260 256 258 263 265 268 273 274 281 284 271 264 296 268 256 252 239 230 227 226 225 225 223 223 228 235 240 241 236 228 224 223 225 228 230 231 231 233 234 235 236 238 239 241 244 244 243 241 240 239 240 240 241 242 243
258 258 259 259 258 259 262 266 265 259 258 262 265 265 267 269 274 276 270 261 255 262 292 272 255 243 235 231 231 232 230 226 227 233 237 237 233 229 227 227 230 233 234 235 236 238 237 235 235 237 239 241 243 243 242 241 239 238 238 239 240 241 243
262 260 259 259 258 258 258 261 265 264 261 261 264 265 265 267 270 272 270 262 253 254 271 268 264 263 257 250 244 241 239 238 236 238 242 241 237 234 234 236 239 241 241 240 240 240 239 236 236 238 240 241 242 242 241 240 239 239 239 240 241 242 243
264 263 261 260 259 258 258 258 260 264 265 264 264 263 263 266 268 268 269 265 257 252 253 250 253 263 272 271 260 250 246 245 245 249 251 246 242 243 243 244 245 247 247 246 243 241 240 237 236 238 241 242 243 243 242 242 241 240 240 241 242 243 243
262 263 262 261 260 257 256 256 256 257 261 265 266 262 259 263 268 268 267 266 261 254 251 247 244 247 259 269 268 263 260 256 255 257 257 250 247 251 254 253 252 252 254 254 249 242 239 238 238 239 240 243 245 245 245 246 245 243 242 242 243 243 244
260 261 261 260 260 258 255 253 254 255 255 258 264 263 259 260 265 268 267 266 264 259 253 250 247 244 249 256 260 265 268 266 265 268 263 252 245 247 251 255 255 253 253 255 253 246 239 239 241 242 242 244 246 247 248 249 248 247 246 245 244 244 245
260 260 260 259 259 259 256 251 250 253 253 253 256 260 259 258 261 265 266 266 266 263 257 254 251 247 250 254 254 260 269 269 267 271 270 262 251 244 244 248 251 250 249 251 253 249 243 241 244 246 247 247 249 251 253 253 253 251 249 247 246 246 247
261 259 258 258 258 259 258 254 249 249 250 251 251 254 256 256 258 260 263 265 267 265 260 258 256 252 255 259 255 257 272 274 266 265 268 267 263 255 247 243 243 245 249 251 252 252 250 248 248 249 252 254 254 255 256 257 257 255 254 252 251 251 251
264 261 258 257 256 257 258 256 252 248 246 247 248 249 251 252 254 256 258 261 265 266 263 261 260 258 261 265 259 258 271 278 271 265 262 260 261 263 258 250 242 239 241 243 246 248 250 251 251 252 255 258 258 257 258 259 259 259 258 257 255 253 253
268 265 262 259 256 256 257 256 253 249 245 242 242 244 246 247 250 253 255 256 260 263 264 264 263 261 262 265 261 260 270 277 274 269 263 256 254 257 257 256 253 246 241 241 245 250 252 254 256 258 258 259 260 260 260 260 259 257 257 256 255 253 253
271 268 264 261 258 257 256 255 252 248 245 240 237 238 240 242 245 250 253 254 256 259 262 264 265 263 262 264 263 263 268 273 273 272 269 262 257 254 253 253 255 257 256 253 253 255 256 257 259 259 258 259 261 261 260 257 254 253 253 254 254 254 253
275 271 267 263 260 258 257 256 252 248 244 239 235 234 235 235 238 244 249 252 254 255 258 262 265 263 261 262 263 263 266 270 272 271 270 269 264 259 256 253 250 252 256 257 257 257 258 259 260 260 260 261 262 261 260 256 252 251 252 253 254 253 253
Height
3156 3159 3161 3163 3165 3167 3169 3171 3174 3176 3178 3180 3183 3185 3188 3190 3192 3194 3197 3199 3201 3204 3205 3208 3210 3212 3213 3216 3218 3220 3221 3223 3225 3227 3229 3231 3233 3234 3235 3237 3238 3240 3241 3243 3244 3244 3245 3246 3247 3247 3248 3249 3250 3250 3250 3251 3251 3252 3252 3253 3253 3254 3255
3152 3155 3158 3161 3163 3165 3167 3170 3172 3174 3176 3178 3181 3183 3186 3188 3190 3192 3195 3197 3200 3202 3204 3206 3209 3211 3213 3215 3217 3219 3220 3222 3224 3226 3228 3230 3231 3233 3235 3236 3238 3239 3241 3242 3243 3244 3245 3246 3246 3247 3248 3249 3250 3250 3250 3251 3252 3252 3252 3253 3253 3254 3255
3151 3153 3155 3157 3160 3163 3166 3168 3170 3172 3174 3177 3179 3181 3184 3187 3189 3191 3194 3196 3198 3201 3203 3205 3207 3209 3212 3214 3215 3217 3219 3221 3223 3225 3227 3229 3231 3232 3234 3235 3237 3238 3239 3241 3242 3243 3244 3245 3246 3247 3248 3249 3249 3250 3250 3251 3252 3252 3253 3253 3254 3254 3255
3150 3151 3153 3155 3158 3161 3163 3165 3167 3170 3172 3175 3177 3180 3182 3185 3188 3190 3193 3195 3197 3199 3201 3203 3205 3208 3210 3212 3214 3216 3218 3220 3222 3224 3226 3228 3230 3231 3232 3234 3235 3237 3238 3240 3241 3242 3243 3244 3245 3246 3247 3249 3249 3250 3251 3251 3252 3252 3253 3253 3254 3254 3255
3148 3149 3151 3153 3155 3158 3160 3162 3165 3167 3170 3173 3176 3178 3181 3183 3186 3188 3191 3193 3195 3197 3200 3202 3204 3206 3208 3210 3212 3214 3217 3219 3221 3223 3225 3227 3228 3230 3231 3232 3234 3235 3237 3238 3240 3241 3242 3243 3244 3246 3247 3248 3249 3250 3250 3251 3252 3252 3253 3253 3254 3254 3254
3146 3148 3149 3151 3153 3156 3158 3160 3163 3165 3168 3171 3174 3177 3179 3181 3184 3186 3189 3191 3194 3196 3198 3200 3202 3204 3206 3209 3211 3213 3215 3217 3219 3221 3223 3225 3226 3228 3230 3231 3232 3234 3235 3237 3238 3239 3240 3242 3243 3244 3246 3247 3248 3249 3250 3251 3252 3252 3252 3253 3253 3254 3254
3144 3145 3147 3148 3151 3153 3156 3158 3161 3163 3166 3168 3171 3174 3177 3179 3182 3184 3186 3189 3192 3194 3196 3198 3200 3202 3204 3206 3209 3211 3213 3215 3217 3219 3221 3223 3224 3226 3228 3230 3231 3232 3234 3235 3236 3237 3239 3240 3242 3243 3244 3246 3247 3248 3249 3250 3251 3252 3252 3252 3253 3253 3254
3141 3143 3144 3145 3147 3150 3153 3155 3158 3161 3163 3166 3168 3171 3174 3177 3179 3182 3184 3187 3190 3192 3194 3196 3198 3200 3202 3204 3206 3209 3211 3213 3215 3217 3219 3220 3222 3224 3226 3227 3229 3231 3232 3233 3234 3236 3237 3239 3240 3241 3243 3244 3245 3247 3248 3249 3250 3251 3251 3252 3253 3253 3253
3139 3140 3141 3143 3145 3147 3150 3153 3156 3158 3160 3163 3165 3167 3171 3174 3177 3179 3182 3185 3188 3190 3192 3195 3197 3199 3201 3202 3204 3206 3209 3211 3213 3214 3216 3218 3220 3222 3224 3225 3227 3228 3229 3231 3232 3234 3235 3237 3238 3239 3241 3242 3244 3245 3246 3248 3249 3249 3250 3251 3252 3252 3253
3137 3138 3139 3141 3142 3145 3147 3150 3153 3156 3158 3160 3162 3164 3168 3171 3174 3177 3180 3182 3185 3188 3191 3193 3195 3197 3199 3200 3202 3204 3206 3208 3210 3212 3213 3215 3217 3219 3222 3223 3225 3226 3227 3229 3230 3231 3233 3234 3235 3237 3238 3240 3241 3243 3244 3246 3247 3248 3249 3250 3250 3251 3252
3136 3137 3138 3139 3141 3143 3145 3147 3150 3153 3155 3157 3159 3162 3164 3167 3171 3174 3177 3179 3181 3184 3187 3190 3193 3194 3196 3198 3199 3201 3203 3205 3207 3209 3211 3213 3215 3217 3219 3221 3222 3224 3225 3227 3228 3229 3231 3232 3233 3234 3236 3237 3239 3240 3242 3243 3245 3246 3247 3248 3249 3250 3250
3136 3137 3137 3138 3140 3141 3143 3145 3148 3150 3153 3155 3157 3159 3161 3163 3167 3171 3174 3176 3179 3181 3184 3187 3189 3191 3193 3195 3197 3199 3200 3202 3204 3206 3208 3210 3212 3214 3216 3218 3220 3221 3223 3224 3225 3227 3228 3229 3231 3232 3233 3235 3236 3238 3239 3241 3242 3243 3245 3246 3247 3248 3249
3137 3137 3137 3138 3139 3140 3142 3144 3146 3148 3150 3152 3154 3156 3158 3160 3163 3167 3170 3172 3175 3177 3180 3182 3185 3188 3190 3192 3194 3196 3198 3200 3202 3203 3205 3207 3210 3211 3213 3215 3216 3218 3220 3221 3223 3224 3225 3227 3228 3229 3231 3233 3234 3235 3237 3238 3239 3240 3242 3243 3244 3246 3247
3139 3138 3137 3137 3138 3140 3141 3143 3144 3146 3148 3150 3152 3154 3156 3158 3160 3164 3167 3168 3170 3173 3175 3178 3181 3184 3187 3189 3191 3193 3195 3197 3199 3201 3203 3205 3207 3208 3210 3212 3213 3215 3217 3218 3220 3221 3222 3224 3225 3227 3228 3229 3231 3232 3234 3235 3236 3238 3239 3240 3242 3243 3244
3139 3138 3138 3138 3139 3140 3141 3142 3143 3144 3146 3148 3150 3152 3154 3156 3158 3160 3163 3165 3167 3169 3171 3174 3177 3180 3183 3185 3188 3190 3193 3195 3197 3198 3200 3202 3203 3205 3207 3209 3210 3212 3213 3215 3216 3218 3220 3221 3222 3224 3225 3226 3227 3229 3230 3231 3233 3235 3237 3238 3239 3240 3241
3139 3138 3138 3138 3139 3140 3141 3142 3142 3143 3144 3146 3148 3150 3152 3154 3155 3157 3159 3161 3163 3165 3168 3171 3174 3177 3180 3182 3185 3188 3190 3192 3194 3196 3197 3198 3200 3202 3203 3205 3206 3208 3209 3211 3212 3214 3216 3217 3219 3220 3221 3223 3224 3225 3226 3228 3230 3232 3234 3235 3236 3237 3238
3140 3139 3138 3138 3138 3139 3140 3141 3142 3142 3143 3145 3146 3148 3150 3151 3153 3155 3156 3158 3160 3162 3165 3167 3170 3173 3176 3179 3181 3184 3186 3188 3190 3192 3194 3195 3197 3198 3199 3201 3202 3204 3205 3207 3208 3210 3212 3213 3215 3217 3218 3220 3221 3222 3223 3224 3226 3228 3230 3232 3233 3234 3235
3140 3140 3140 3139 3138 3138 3138 3139 3140 3141 3142 3143 3145 3146 3147 3149 3150 3151 3153 3154 3156 3159 3162 3165 3168 3171 3173 3175 3178 3180 3182 3184 3185 3187 3189 3192 3194 3195 3197 3198 3198 3200 3201 3203 3204 3206 3208 3209 3211 3213 3215 3216 3217 3219 3220 3222 3224 3225 3227 3228 3230 3231 3232
3139 3140 3140 3140 3139 3139 3138 3138 3138 3139 3141 3142 3143 3144 3145 3146 3147 3148 3149 3149 3152 3156 3161 3164 3166 3168 3170 3172 3174 3177 3180 3182 3182 3183 3184 3186 3189 3192 3194 3194 3195 3196 3198 3199 3201 3203 3204 3206 3208 3210 3211 3213 3214 3215 3217 3219 3221 3222 3223 3225 3226 3228 3228
3138 3139 3139 3140 3140 3140 3139 3139 3138 3138 3139 3140 3141 3142 3142 3143 3144 3144 3144 3145 3150 3156 3160 3161 3163 3164 3166 3168 3170 3172 3175 3178 3180 3180 3181 3182 3184 3186 3188 3190 3192 3194 3195 3196 3198 3199 3200 3202 3204 3206 3208 3209 3211 3212 3214 3216 3218 3219 3220 3222 3223 3224 3225
3136 3137 3138 3138 3139 3140 3140 3139 3139 3139 3139 3139 3140 3140 3140 3140 3141 3141 3141 3143 3150 3154 3155 3157 3159 3161 3162 3164 3167 3168 3170 3172 3174 3176 3178 3180 3181 3181 3182 3184 3187 3189 3191 3193 3194 3195 3197 3198 3200 3201 3203 3205 3207 3208 3210 3212 3214 3216 3217 3218 3220 3220 3221
3134 3135 3135 3136 3138 3139 3139 3139 3139 3139 3139 3139 3139 3139 3139 3139 3139 3140 3140 3142 3146 3149 3151 3153 3155 3157 3159 3161 3164 3165 3166 3166 3168 3171 3174 3176 3177 3178 3179 3180 3182 3184 3186 3188 3190 3191 3193 3194 3195 3197 3199 3201 3202 3203 3205 3208 3210 3212 3213 3215 3216 3217 3217
3132 3132 3133 3134 3135 3136 3137 3138 3138 3138 3138 3139 3139 3139 3139 3139 3139 3139 3139 3141 3143 3146 3149 3151 3151 3154 3157 3160 3163 3164 3163 3163 3165 3167 3169 3171 3172 3174 3176 3177 3179 3180 3181 3183 3185 3187 3189 3190 3192 3193 3195 3196 3197 3199 3201 3204 3206 3207 3209 3211 3212 3212 3213
3129 3130 3131 3131 3132 3134 3135 3136 3137 3137 3137 3138 3138 3139 3139 3139 3139 3140 3140 3141 3142 3144 3148 3150 3149 3151 3155 3158 3161 3163 3162 3161 3162 3163 3165 3166 3167 3169 3171 3173 3175 3177 3178 3178 3180 3182 3184 3186 3187 3189 3190 3191 3193 3194 3196 3199 3201 3203 3204 3206 3207 3208 3208
3127 3128 3129 3129 3129 3130 3131 3133 3134 3135 3135 3136 3136 3137 3138 3138 3139 3140 3140 3140 3140 3143 3146 3148 3148 3149 3151 3153 3156 3158 3158 3158 3159 3160 3161 3162 3163 3165 3166 3168 3170 3172 3173 3174 3175 3177 3180 3181 3183 3184 3186 3187 3189 3191 3192 3194 3197 3198 3199 3201 3202 3203 3204
3124 3125 3126 3127 3127 3127 3127 3128 3130 3132 3132 3133 3134 3135 3136 3137 3138 3139 3139 3139 3139 3141 3143 3145 3146 3146 3148 3149 3151 3152 3153 3154 3155 3156 3157 3158 3160 3161 3162 3163 3165 3167 3169 3170 3172 3174 3175 3177 3178 3180 3182 3184 3185 3187 3188 3190 3192 3194 3195 3197 3198 3199 3200
3121 3122 3123 3124 3124 3124 3124 3124 3125 3128 3129 3129 3131 3132 3133 3134 3135 3136 3137 3138 3138 3138 3140 3142 3143 3144 3146 3148 3148 3147 3147 3149 3150 3151 3152 3153 3154 3156 3157 3159 3160 3162 3165 3167 3168 3170 3172 3173 3175 3177 3179 3180 3182 3183 3185 3187 3188 3190 3191 3193 3194 3195 3196
3117 3118 3119 3120 3121 3121 3121 3121 3121 3123 3125 3127 3127 3128 3130 3131 3132 3133 3135 3136 3136 3136 3137 3140 3141 3141 3142 3144 3144 3143 3142 3143 3145 3146 3146 3147 3149 3152 3154 3156 3157 3159 3161 3163 3164 3166 3168 3170 3172 3173 3175 3177 3178 3180 3182 3183 3185 3186 3188 3189 3190 3191 3192
3111 3113 3114 3116 3117 3117 3117 3117 3118 3118 3121 3124 3124 3125 3126 3127 3129 3130 3132 3133 3134 3135 3135 3137 3138 3139 3139 3139 3140 3142 3141 3140 3140 3141 3142 3144 3147 3149 3151 3152 3154 3156 3158 3159 3161 3162 3164 3166 3168 3170 3172 3173 3175 3177 3179 3180 3181 3183 3184 3185 3187 3188 3189
3107 3108 3109 3111 3112 3113 3113 3114 3115 3115 3117 3119 3121 3122 3122 3123 3125 3127 3128 3130 3131 3132 3132 3133 3134 3135 3136 3137 3137 3138 3138 3137 3138 3138 3141 3144 3146 3146 3148 3149 3150 3152 3154 3156 3157 3158 3160 3162 3164 3166 3168 3170 3172 3174 3176 3177 3178 3180 3181 3182 3183 3185 3186
3103 3103 3104 3106 3107 3108 3109 3110 3111 3113 3114 3115 3116 3118 3119 3120 3120 3122 3124 3125 3127 3128 3129 3129 3130 3131 3133 3134 3135 3135 3135 3135 3135 3136 3139 3144 3145 3144 3145 3146 3146 3148 3151 3153 3154 3155 3156 3158 3160 3162 3165 3167 3169 3170 3172 3173 3175 3176 3177 3178 3180 3181 3182
3099 3099 3099 3100 3101 3102 3103 3105 3107 3109 3111 3112 3112 3113 3115 3117 3117 3118 3120 3121 3122 3124 3125 3125 3126 3127 3128 3131 3132 3133 3133 3134 3134 3134 3137 3140 3142 3142 3142 3143 3144 3145 3147 3149 3151 3153 3154 3155 3156 3159 3161 3163 3165 3167 3168 3170 3171 3172 3173 3175 3176 3177 3179
3093 3094 3095 3095 3096 3096 3097 3099 3101 3103 3105 3108 3109 3109 3111 3113 3115 3115 3115 3116 3117 3118 3120 3121 3122 3123 3124 3126 3128 3129 3130 3131 3133 3133 3134 3134 3136 3138 3139 3140 3141 3142 3144 3146 3149 3151 3152 3153 3153 3155 3157 3159 3162 3163 3165 3166 3167 3168 3170 3171 3172 3173 3175
3086 3088 3089 3090 3090 3090 3090 3092 3094 3096 3099 3102 3105 3106 3106 3109 3112 3112 3111 3111 3112 3113 3114 3116 3118 3119 3120 3122 3124 3125 3126 3127 3129 3130 3131 3131 3132 3134 3135 3136 3138 3139 3140 3143 3146 3148 3150 3150 3151 3152 3154 3157 3158 3160 3161 3162 3163 3165 3166 3167 3168 3169 3171
3079 3081 3083 3083 3084 3085 3085 3086 3088 3090 3092 3095 3099 3100 3101 3103 3106 3108 3108 3107 3107 3108 3109 3111 3113 3115 3116 3117 3119 3120 3121 3122 3124 3126 3127 3128 3129 3130 3131 3133 3134 3136 3139 3142 3144 3145 3146 3147 3147 3149 3151 3153 3155 3156 3156 3157 3159 3161 3163 3163 3163 3164 3165
3072 3073 3076 3077 3077 3078 3079 3080 3082 3083 3085 3088 3091 3093 3095 3097 3100 3102 3104 3103 3102 3102 3104 3106 3108 3110 3112 3113 3114 3115 3116 3118 3120 3122 3123 3124 3126 3127 3128 3129 3130 3132 3135 3139 3141 3142 3142 3142 3143 3145 3147 3148 3150 3151 3152 3153 3155 3157 3157 3157 3157 3159 3160
3064 3065 3068 3070 3070 3071 3072 3074 3075 3077 3079 3082 3084 3085 3088 3091 3093 3096 3098 3099 3099 3099 3100 3101 3103 3105 3107 3108 3109 3110 3111 3113 3115 3117 3119 3120 3121 3122 3124 3125 3126 3127 3130 3132 3134 3135 3136 3137 3139 3141 3142 3143 3144 3146 3147 3148 3150 3151 3151 3151 3152 3154 3155
3058 3058 3059 3062 3063 3064 3065 3066 3068 3070 3072 3075 3077 3078 3081 3084 3087 3089 3091 3094 3095 3096 3096 3097 3098 3100 3102 3103 3104 3105 3106 3108 3110 3113 3114 3115 3116 3118 3119 3121 3122 3124 3126 3127 3129 3130 3131 3133 3135 3136 3137 3138 3139 3141 3142 3143 3144 3145 3146 3146 3147 3149 3150